| time (UTC) | temp F | wind direction | speed MPH | gust MPH | rain 1hr in | rain 24hr in | rain mn in | humidity % | barometer mb |
| 20260901034856 | 52 | 3.0 | 0.0 | 0.00 | 0.00 | 0.00 | 100 | 1017.0 | |
| 20260901033359 | 52 | 3.0 | 0.0 | 0.00 | 0.00 | 0.00 | 100 | 1017.0 | |
| 20260901031850 | 52 | 3.0 | 0.0 | 0.00 | 0.00 | 0.00 | 100 | 1017.0 | |
| 20260901030359 | 52 | 3.0 | 0.0 | 0.00 | 0.00 | 0.00 | 100 | 1017.0 | |
| 20260901024857 | 61 | 3.0 | 0.0 | 0.00 | 0.00 | 0.00 | 100 | 1018.0 | |
| 20260901023359 | 61 | 3.0 | 0.0 | 0.00 | 0.00 | 0.00 | 100 | 1018.0 | |
| 20260901021857 | 61 | 3.0 | 0.0 | 0.00 | 0.00 | 0.00 | 100 | 1018.0 | |
| 20260901020356 | 61 | 3.0 | 0.0 | 0.00 | 0.00 | 0.00 | 100 | 1018.0 | |
| 20260901014847 | 0 | 0.0 | 0.0 | 0.00 | 0.00 | 0.00 | |||
| 20260901013400 | 0 | 0.0 | 0.0 | 0.00 | 0.00 | 0.00 | |||
| 20260901011901 | 0 | 0.0 | 0.0 | 0.00 | 0.00 | 0.00 | |||
| 20260901010401 | 0 | 0.0 | 0.0 | 0.00 | 0.00 | 0.00 | |||
| 20260901004900 | 0 | 0.0 | 0.0 | 0.00 | 0.00 | 0.00 | |||
| 20260901003359 | 0 | 0.0 | 0.0 | 0.00 | 0.00 | 0.00 | |||
| 20260901001853 | 0 | 0.0 | 0.0 | 0.00 | 0.00 | 0.00 | |||
| 20260901000359 | 0 | 0.0 | 0.0 | 0.00 | 0.00 | 0.00 | |||
| 20260831234859 | 64 | 100 | 6.0 | 0.0 | 0.00 | 0.00 | 0.00 | 88 | 1018.0 |
| 20260831233400 | 64 | 100 | 6.0 | 0.0 | 0.00 | 0.00 | 0.00 | 88 | 1018.0 |
| 20260831231900 | 64 | 100 | 6.0 | 0.0 | 0.00 | 0.00 | 0.00 | 88 | 1018.0 |
| 20260831230359 | 64 | 100 | 6.0 | 0.0 | 0.00 | 0.00 | 0.00 | 88 | 1018.0 |
| 20260831224859 | 64 | 100 | 6.0 | 0.0 | 0.00 | 0.00 | 0.00 | 88 | 1018.0 |
| 20260831223400 | 0 | 0.0 | 0.0 | 0.00 | 0.00 | 0.00 | |||
| 20260831221900 | 0 | 0.0 | 0.0 | 0.00 | 0.00 | 0.00 | |||
| 20260831220359 | 0 | 0.0 | 0.0 | 0.00 | 0.00 | 0.00 | |||
| 20260831214859 | 66 | 110 | 8.0 | 0.0 | 0.00 | 0.00 | 0.00 | 73 | 1018.0 |
| 20260831213359 | 66 | 110 | 8.0 | 0.0 | 0.00 | 0.00 | 0.00 | 73 | 1018.0 |
| 20260831211859 | 66 | 110 | 8.0 | 0.0 | 0.00 | 0.00 | 0.00 | 73 | 1018.0 |
| 20260831210359 | 66 | 110 | 8.0 | 0.0 | 0.00 | 0.00 | 0.00 | 73 | 1018.0 |
| 20260831204901 | 66 | 110 | 8.0 | 0.0 | 0.00 | 0.00 | 0.00 | 73 | 1018.0 |
| 20260831203401 | 66 | 110 | 8.0 | 0.0 | 0.00 | 0.00 | 0.00 | 64 | 1018.0 |
| 20260831201859 | 66 | 110 | 8.0 | 0.0 | 0.00 | 0.00 | 0.00 | 64 | 1018.0 |
| 20260831200359 | 66 | 110 | 8.0 | 0.0 | 0.00 | 0.00 | 0.00 | 64 | 1018.0 |
| 20260831194857 | 66 | 110 | 8.0 | 0.0 | 0.00 | 0.00 | 0.00 | 64 | 1018.0 |
| 20260831193359 | 0 | 0.0 | 0.0 | 0.00 | 0.00 | 0.00 | |||
| 20260831191900 | 0 | 0.0 | 0.0 | 0.00 | 0.00 | 0.00 | |||
| 20260831190407 | 0 | 0.0 | 0.0 | 0.00 | 0.00 | 0.00 | |||
| 20260831184857 | 70 | 120 | 9.0 | 0.0 | 0.00 | 0.00 | 0.00 | 43 | 1017.0 |
| 20260831183359 | 70 | 120 | 9.0 | 0.0 | 0.00 | 0.00 | 0.00 | 43 | 1017.0 |
| 20260831181901 | 70 | 120 | 9.0 | 0.0 | 0.00 | 0.00 | 0.00 | 43 | 1017.0 |
| 20260831180400 | 70 | 120 | 9.0 | 0.0 | 0.00 | 0.00 | 0.00 | 43 | 1017.0 |
| 20260831174900 | 77 | 130 | 9.0 | 0.0 | 0.00 | 0.00 | 0.00 | 34 | 1017.0 |
| 20260831173400 | 77 | 130 | 9.0 | 0.0 | 0.00 | 0.00 | 0.00 | 34 | 1017.0 |
| 20260831171857 | 77 | 130 | 9.0 | 0.0 | 0.00 | 0.00 | 0.00 | 34 | 1017.0 |
| 20260831170401 | 0 | 0.0 | 0.0 | 0.00 | 0.00 | 0.00 | |||
| 20260831164859 | 82 | 130 | 14.0 | 0.0 | 0.00 | 0.00 | 0.00 | 28 | 1017.0 |
| 20260831163359 | 82 | 130 | 14.0 | 0.0 | 0.00 | 0.00 | 0.00 | 28 | 1017.0 |
| 20260831161859 | 82 | 130 | 14.0 | 0.0 | 0.00 | 0.00 | 0.00 | 28 | 1017.0 |
| 20260831160400 | 82 | 130 | 14.0 | 0.0 | 0.00 | 0.00 | 0.00 | 28 | 1017.0 |
| 20260831154859 | 86 | 130 | 17.0 | 0.0 | 0.00 | 0.00 | 0.00 | 27 | 1017.0 |
| 20260831153359 | 86 | 130 | 17.0 | 0.0 | 0.00 | 0.00 | 0.00 | 27 | 1017.0 |
| 20260831151900 | 86 | 130 | 17.0 | 0.0 | 0.00 | 0.00 | 0.00 | 27 | 1017.0 |
| 20260831150400 | 0 | 0.0 | 0.0 | 0.00 | 0.00 | 0.00 | |||
| 20260831144900 | 88 | 120 | 20.0 | 0.0 | 0.00 | 0.00 | 0.00 | 25 | 1017.0 |
| 20260831143400 | 88 | 120 | 20.0 | 0.0 | 0.00 | 0.00 | 0.00 | 25 | 1017.0 |
| 20260831141900 | 88 | 120 | 20.0 | 0.0 | 0.00 | 0.00 | 0.00 | 25 | 1017.0 |
| 20260831140407 | 88 | 120 | 20.0 | 0.0 | 0.00 | 0.00 | 0.00 | 25 | 1017.0 |
| 20260831134900 | 88 | 140 | 14.0 | 0.0 | 0.00 | 0.00 | 0.00 | 24 | 1017.0 |
| 20260831133401 | 88 | 140 | 14.0 | 0.0 | 0.00 | 0.00 | 0.00 | 24 | 1017.0 |
| 20260831131900 | 88 | 140 | 14.0 | 0.0 | 0.00 | 0.00 | 0.00 | 24 | 1017.0 |
| 20260831130401 | 88 | 140 | 14.0 | 0.0 | 0.00 | 0.00 | 0.00 | 24 | 1017.0 |
| 20260831124917 | 90 | 90 | 14.0 | 0.0 | 0.00 | 0.00 | 0.00 | 22 | 1017.0 |
| 20260831123400 | 90 | 90 | 14.0 | 0.0 | 0.00 | 0.00 | 0.00 | 22 | 1017.0 |
| 20260831121900 | 90 | 90 | 14.0 | 0.0 | 0.00 | 0.00 | 0.00 | 22 | 1017.0 |
| 20260831120400 | 0 | 0.0 | 0.0 | 0.00 | 0.00 | 0.00 | |||
| 20260831114900 | 88 | 150 | 11.0 | 0.0 | 0.00 | 0.00 | 0.00 | 25 | 1018.0 |
| 20260831113400 | 88 | 150 | 11.0 | 0.0 | 0.00 | 0.00 | 0.00 | 25 | 1018.0 |
| 20260831111920 | 88 | 150 | 11.0 | 0.0 | 0.00 | 0.00 | 0.00 | 25 | 1018.0 |
| 20260831110359 | 0 | 0.0 | 0.0 | 0.00 | 0.00 | 0.00 | |||
| 20260831104900 | 86 | 90 | 11.0 | 0.0 | 0.00 | 0.00 | 0.00 | 31 | 1018.0 |
| 20260831103400 | 86 | 90 | 11.0 | 0.0 | 0.00 | 0.00 | 0.00 | 31 | 1018.0 |
| 20260831101900 | 86 | 90 | 11.0 | 0.0 | 0.00 | 0.00 | 0.00 | 31 | 1018.0 |
| 20260831100359 | 86 | 90 | 11.0 | 0.0 | 0.00 | 0.00 | 0.00 | 31 | 1018.0 |
| 20260831094859 | 84 | 90 | 11.0 | 0.0 | 0.00 | 0.00 | 0.00 | 31 | 1018.0 |
| 20260831093521 | 0 | 0.0 | 0.0 | 0.00 | 0.00 | 0.00 | |||
| 20260831091900 | 84 | 90 | 11.0 | 0.0 | 0.00 | 0.00 | 0.00 | 31 | 1018.0 |
| 20260831090400 | 84 | 90 | 11.0 | 0.0 | 0.00 | 0.00 | 0.00 | 31 | 1018.0 |
| 20260831084859 | 0 | 0.0 | 0.0 | 0.00 | 0.00 | 0.00 | |||
| 20260831083359 | 0 | 0.0 | 0.0 | 0.00 | 0.00 | 0.00 | |||
| 20260831082022 | 0 | 0.0 | 0.0 | 0.00 | 0.00 | 0.00 | |||
| 20260831080359 | 0 | 0.0 | 0.0 | 0.00 | 0.00 | 0.00 | |||
| 20260831074923 | 0 | 0.0 | 0.0 | 0.00 | 0.00 | 0.00 | |||
| 20260831073400 | 0 | 0.0 | 0.0 | 0.00 | 0.00 | 0.00 | |||
| 20260831071929 | 0 | 0.0 | 0.0 | 0.00 | 0.00 | 0.00 | |||
| 20260831070401 | 0 | 0.0 | 0.0 | 0.00 | 0.00 | 0.00 | |||
| 20260831064859 | 72 | 3.0 | 0.0 | 0.00 | 0.00 | 0.00 | 73 | 1019.0 | |
| 20260831063359 | 72 | 3.0 | 0.0 | 0.00 | 0.00 | 0.00 | 73 | 1019.0 | |
| 20260831061901 | 72 | 3.0 | 0.0 | 0.00 | 0.00 | 0.00 | 73 | 1019.0 | |
| 20260831060400 | 72 | 3.0 | 0.0 | 0.00 | 0.00 | 0.00 | 73 | 1019.0 | |
| 20260831054900 | 59 | 3.0 | 0.0 | 0.00 | 0.00 | 0.00 | 100 | 1018.0 | |
| 20260831053359 | 59 | 3.0 | 0.0 | 0.00 | 0.00 | 0.00 | 100 | 1018.0 | |
| 20260831051900 | 59 | 3.0 | 0.0 | 0.00 | 0.00 | 0.00 | 100 | 1018.0 | |
| 20260831050359 | 0 | 0.0 | 0.0 | 0.00 | 0.00 | 0.00 | |||
| 20260831044901 | 59 | 3.0 | 0.0 | 0.00 | 0.00 | 0.00 | 100 | 1018.0 | |
| 20260831043404 | 59 | 3.0 | 0.0 | 0.00 | 0.00 | 0.00 | 100 | 1018.0 | |
| 20260831041900 | 59 | 3.0 | 0.0 | 0.00 | 0.00 | 0.00 | 100 | 1018.0 | |
| 20260831040359 | 59 | 3.0 | 0.0 | 0.00 | 0.00 | 0.00 | 100 | 1018.0 |